QPF
0.00 0.00 0.00 0.00 0.00 0.00 0.00 0.00 0.01 0.01 0.00 0.00 0.00 0.00 0.00 0.00 0.00 0.00 0.00 0.00 0.00 0.00 0.00 0.01 0.01 0.01 0.01 0.01 0.00 0.00 0.00 0.00 0.00 0.00 0.00 0.00 0.00 0.00 0.00 0.01 0.02 0.01 0.00
0.01 0.00 0.00 0.00 0.00 0.00 0.00 0.00 0.00 0.01 0.01 0.01 0.00 0.00 0.00 0.00 0.00 0.00 0.00 0.00 0.00 0.00 0.00 0.01 0.01 0.01 0.01 0.01 0.01 0.00 0.00 0.00 0.00 0.00 0.00 0.00 0.00 0.00 0.00 0.01 0.03 0.01 0.00
0.01 0.00 0.00 0.00 0.00 0.00 0.00 0.00 0.00 0.00 0.01 0.00 0.00 0.00 0.00 0.00 0.00 0.00 0.00 0.00 0.00 0.00 0.01 0.00 0.01 0.01 0.01 0.02 0.01 0.01 0.00 0.00 0.00 0.00 0.03 0.01 0.00 0.00 0.00 0.01 0.01 0.00 0.00
0.01 0.01 0.00 0.00 0.00 0.00 0.00 0.00 0.00 0.01 0.02 0.01 0.01 0.01 0.01 0.00 0.00 0.01 0.01 0.01 0.01 0.01 0.01 0.00 0.01 0.01 0.01 0.02 0.01 0.01 0.00 0.00 0.01 0.03 0.11 0.05 0.01 0.00 0.00 0.01 0.01 0.00 0.00
0.00 0.01 0.00 0.00 0.00 0.00 0.00 0.01 0.01 0.02 0.02 0.02 0.01 0.01 0.01 0.01 0.01 0.01 0.01 0.01 0.01 0.01 0.01 0.01 0.01 0.01 0.01 0.01 0.01 0.01 0.00 0.01 0.02 0.05 0.08 0.07 0.05 0.01 0.00 0.01 0.00 0.00 0.01
0.00 0.00 0.00 0.00 0.00 0.00 0.01 0.01 0.02 0.02 0.02 0.02 0.02 0.02 0.02 0.01 0.01 0.01 0.01 0.01 0.01 0.01 0.01 0.01 0.01 0.01 0.01 0.01 0.01 0.01 0.01 0.01 0.02 0.04 0.06 0.08 0.05 0.02 0.00 0.00 0.00 0.00 0.01
0.00 0.00 0.00 0.00 0.00 0.00 0.01 0.01 0.01 0.02 0.02 0.03 0.03 0.03 0.03 0.03 0.02 0.01 0.01 0.01 0.01 0.01 0.01 0.01 0.01 0.01 0.01 0.01 0.01 0.01 0.01 0.02 0.03 0.04 0.05 0.06 0.06 0.02 0.01 0.01 0.01 0.01 0.01
0.00 0.00 0.00 0.00 0.00 0.00 0.01 0.01 0.01 0.02 0.02 0.03 0.03 0.03 0.03 0.02 0.02 0.02 0.01 0.01 0.01 0.01 0.01 0.01 0.01 0.01 0.01 0.01 0.01 0.01 0.01 0.01 0.03 0.03 0.04 0.06 0.06 0.02 0.01 0.01 0.02 0.03 0.02
0.00 0.00 0.01 0.00 0.00 0.00 0.00 0.01 0.01 0.01 0.02 0.03 0.03 0.03 0.02 0.02 0.02 0.02 0.02 0.02 0.02 0.02 0.02 0.01 0.01 0.01 0.01 0.01 0.01 0.01 0.01 0.01 0.03 0.02 0.04 0.05 0.03 0.02 0.02 0.01 0.01 0.02 0.02
0.01 0.01 0.01 0.02 0.02 0.01 0.00 0.00 0.01 0.01 0.02 0.03 0.02 0.02 0.02 0.01 0.01 0.02 0.02 0.02 0.02 0.02 0.02 0.02 0.01 0.01 0.01 0.01 0.01 0.01 0.01 0.01 0.03 0.02 0.05 0.06 0.04 0.02 0.02 0.01 0.01 0.01 0.01
0.01 0.01 0.02 0.04 0.04 0.03 0.01 0.01 0.01 0.01 0.02 0.02 0.03 0.03 0.05 0.04 0.05 0.06 0.03 0.04 0.03 0.02 0.02 0.02 0.01 0.01 0.01 0.01 0.01 0.00 0.00 0.02 0.05 0.04 0.08 0.12 0.07 0.04 0.03 0.03 0.02 0.01 0.01
0.04 0.04 0.04 0.06 0.05 0.05 0.05 0.05 0.05 0.05 0.05 0.04 0.07 0.07 0.08 0.14 0.15 0.13 0.15 0.13 0.08 0.05 0.03 0.03 0.03 0.02 0.01 0.01 0.02 0.01 0.00 0.01 0.06 0.09 0.11 0.10 0.06 0.04 0.03 0.03 0.03 0.03 0.02
0.11 0.08 0.06 0.07 0.11 0.12 0.13 0.13 0.14 0.14 0.17 0.16 0.18 0.16 0.16 0.19 0.18 0.19 0.21 0.17 0.13 0.10 0.10 0.10 0.06 0.05 0.04 0.04 0.06 0.04 0.02 0.01 0.02 0.06 0.09 0.09 0.07 0.06 0.05 0.04 0.04 0.04 0.04
0.18 0.14 0.08 0.09 0.11 0.19 0.22 0.19 0.20 0.23 0.24 0.22 0.21 0.18 0.21 0.23 0.24 0.23 0.24 0.22 0.20 0.18 0.19 0.17 0.16 0.13 0.11 0.09 0.09 0.09 0.05 0.02 0.02 0.03 0.08 0.10 0.07 0.07 0.07 0.06 0.05 0.05 0.05
0.22 0.15 0.09 0.09 0.10 0.12 0.18 0.23 0.28 0.26 0.31 0.30 0.31 0.29 0.28 0.26 0.26 0.27 0.25 0.25 0.24 0.26 0.26 0.26 0.24 0.20 0.16 0.10 0.08 0.07 0.05 0.05 0.08 0.09 0.10 0.10 0.07 0.08 0.09 0.09 0.08 0.08 0.07
0.24 0.13 0.07 0.07 0.08 0.09 0.12 0.15 0.17 0.18 0.23 0.30 0.45 0.52 0.38 0.34 0.33 0.32 0.30 0.29 0.24 0.24 0.25 0.28 0.29 0.25 0.20 0.12 0.07 0.05 0.04 0.03 0.08 0.11 0.14 0.15 0.12 0.09 0.09 0.10 0.11 0.10 0.08
0.17 0.12 0.10 0.06 0.08 0.09 0.11 0.12 0.15 0.17 0.18 0.20 0.29 0.37 0.35 0.27 0.28 0.27 0.26 0.26 0.23 0.23 0.27 0.27 0.30 0.23 0.17 0.12 0.08 0.06 0.06 0.06 0.07 0.10 0.16 0.19 0.21 0.15 0.10 0.09 0.10 0.11 0.12
0.07 0.07 0.08 0.07 0.07 0.07 0.09 0.10 0.12 0.15 0.15 0.17 0.19 0.20 0.18 0.16 0.16 0.16 0.17 0.20 0.20 0.24 0.30 0.29 0.26 0.22 0.19 0.17 0.13 0.09 0.08 0.09 0.09 0.11 0.13 0.20 0.27 0.25 0.16 0.11 0.10 0.11 0.12
0.05 0.05 0.04 0.05 0.06 0.07 0.07 0.08 0.09 0.10 0.11 0.14 0.14 0.13 0.11 0.10 0.10 0.12 0.13 0.16 0.20 0.22 0.23 0.23 0.26 0.24 0.23 0.21 0.17 0.14 0.13 0.13 0.14 0.14 0.16 0.20 0.26 0.27 0.22 0.17 0.14 0.15 0.14
0.03 0.03 0.03 0.04 0.06 0.06 0.06 0.05 0.06 0.07 0.07 0.07 0.07 0.06 0.06 0.06 0.06 0.09 0.11 0.12 0.17 0.20 0.20 0.21 0.25 0.22 0.19 0.21 0.16 0.15 0.15 0.15 0.16 0.17 0.19 0.22 0.26 0.27 0.27 0.22 0.19 0.19 0.19
0.01 0.02 0.02 0.04 0.06 0.06 0.06 0.05 0.06 0.06 0.07 0.07 0.07 0.05 0.05 0.05 0.06 0.09 0.12 0.15 0.17 0.16 0.17 0.18 0.21 0.23 0.21 0.20 0.18 0.15 0.13 0.12 0.12 0.14 0.18 0.19 0.22 0.23 0.26 0.26 0.24 0.22 0.21
0.01 0.01 0.02 0.03 0.04 0.05 0.07 0.07 0.06 0.06 0.05 0.05 0.05 0.05 0.05 0.05 0.06 0.06 0.08 0.11 0.11 0.12 0.14 0.16 0.20 0.22 0.20 0.19 0.17 0.17 0.13 0.11 0.09 0.09 0.12 0.13 0.16 0.21 0.24 0.22 0.21 0.19 0.17
0.01 0.01 0.01 0.02 0.03 0.03 0.05 0.06 0.05 0.05 0.04 0.05 0.06 0.06 0.05 0.05 0.05 0.05 0.06 0.10 0.11 0.11 0.11 0.14 0.18 0.21 0.22 0.22 0.22 0.21 0.18 0.15 0.12 0.11 0.12 0.13 0.14 0.18 0.24 0.23 0.19 0.16 0.15
0.01 0.01 0.01 0.02 0.02 0.02 0.03 0.05 0.05 0.06 0.06 0.07 0.07 0.07 0.06 0.04 0.03 0.03 0.05 0.07 0.11 0.14 0.12 0.11 0.15 0.18 0.20 0.20 0.21 0.19 0.19 0.18 0.16 0.14 0.15 0.18 0.17 0.16 0.18 0.20 0.21 0.20 0.18
0.01 0.01 0.01 0.01 0.01 0.02 0.02 0.04 0.06 0.06 0.07 0.07 0.07 0.07 0.06 0.04 0.04 0.03 0.03 0.04 0.06 0.10 0.11 0.10 0.11 0.13 0.16 0.17 0.18 0.20 0.19 0.18 0.14 0.13 0.14 0.17 0.19 0.20 0.20 0.18 0.17 0.17 0.17
0.01 0.01 0.01 0.01 0.01 0.02 0.02 0.03 0.04 0.05 0.05 0.05 0.06 0.06 0.05 0.05 0.04 0.04 0.03 0.03 0.04 0.06 0.08 0.08 0.08 0.10 0.12 0.15 0.19 0.19 0.18 0.16 0.14 0.15 0.15 0.16 0.19 0.22 0.22 0.20 0.18 0.16 0.14
MSLP
1007.99 1008.29 1008.85 1009.58 1010.37 1011.11 1011.71 1012.14 1012.41 1012.57 1012.68 1012.81 1013.02 1013.31 1013.67 1014.06 1014.43 1014.74 1014.97 1015.14 1015.25 1015.34 1015.45 1015.58 1015.75 1015.93 1016.12 1016.29 1016.43 1016.54 1016.63 1016.71 1016.80 1016.92 1017.07 1017.26 1017.47 1017.68 1017.89 1018.09 1018.26 1018.42 1018.56
1007.81 1008.23 1008.88 1009.68 1010.49 1011.21 1011.77 1012.15 1012.37 1012.50 1012.62 1012.81 1013.10 1013.49 1013.95 1014.41 1014.81 1015.13 1015.34 1015.46 1015.53 1015.58 1015.67 1015.79 1015.96 1016.16 1016.35 1016.51 1016.63 1016.72 1016.78 1016.85 1016.95 1017.10 1017.29 1017.53 1017.78 1018.03 1018.27 1018.48 1018.65 1018.80 1018.94
1007.61 1008.12 1008.84 1009.68 1010.51 1011.22 1011.76 1012.11 1012.32 1012.47 1012.64 1012.90 1013.27 1013.73 1014.24 1014.72 1015.13 1015.41 1015.57 1015.65 1015.68 1015.72 1015.81 1015.96 1016.16 1016.38 1016.57 1016.72 1016.81 1016.85 1016.88 1016.92 1017.02 1017.18 1017.41 1017.69 1018.00 1018.30 1018.57 1018.80 1018.98 1019.14 1019.28
1007.46 1008.03 1008.80 1009.67 1010.51 1011.22 1011.75 1012.10 1012.33 1012.52 1012.76 1013.09 1013.52 1014.03 1014.56 1015.03 1015.39 1015.62 1015.72 1015.75 1015.77 1015.82 1015.95 1016.14 1016.39 1016.63 1016.83 1016.95 1017.00 1016.99 1016.96 1016.97 1017.04 1017.21 1017.47 1017.79 1018.14 1018.48 1018.78 1019.03 1019.24 1019.42 1019.58
1007.40 1008.02 1008.83 1009.72 1010.56 1011.27 1011.81 1012.18 1012.45 1012.69 1012.98 1013.37 1013.85 1014.38 1014.90 1015.32 1015.62 1015.78 1015.83 1015.83 1015.85 1015.93 1016.11 1016.37 1016.67 1016.95 1017.16 1017.26 1017.25 1017.18 1017.08 1017.04 1017.08 1017.24 1017.51 1017.86 1018.24 1018.61 1018.93 1019.21 1019.43 1019.62 1019.80
1007.44 1008.11 1008.95 1009.86 1010.71 1011.42 1011.96 1012.35 1012.65 1012.94 1013.28 1013.72 1014.22 1014.74 1015.22 1015.60 1015.83 1015.92 1015.93 1015.91 1015.94 1016.08 1016.33 1016.66 1017.02 1017.34 1017.55 1017.61 1017.55 1017.41 1017.25 1017.15 1017.16 1017.31 1017.58 1017.94 1018.34 1018.72 1019.06 1019.33 1019.56 1019.77 1019.97
1007.59 1008.30 1009.16 1010.08 1010.92 1011.63 1012.17 1012.57 1012.89 1013.21 1013.59 1014.04 1014.55 1015.06 1015.50 1015.82 1015.99 1016.03 1016.01 1015.99 1016.06 1016.25 1016.57 1016.97 1017.39 1017.73 1017.93 1017.97 1017.86 1017.66 1017.45 1017.30 1017.27 1017.41 1017.68 1018.05 1018.45 1018.84 1019.17 1019.44 1019.66 1019.86 1020.08
1007.78 1008.52 1009.40 1010.31 1011.14 1011.83 1012.35 1012.75 1013.08 1013.42 1013.81 1014.28 1014.78 1015.27 1015.68 1015.95 1016.08 1016.10 1016.06 1016.06 1016.16 1016.40 1016.78 1017.23 1017.69 1018.04 1018.24 1018.25 1018.10 1017.86 1017.60 1017.43 1017.39 1017.52 1017.79 1018.16 1018.57 1018.95 1019.28 1019.53 1019.74 1019.94 1020.14
1007.96 1008.72 1009.60 1010.49 1011.28 1011.93 1012.42 1012.79 1013.12 1013.46 1013.87 1014.35 1014.85 1015.34 1015.73 1015.98 1016.09 1016.09 1016.06 1016.07 1016.20 1016.48 1016.89 1017.37 1017.83 1018.19 1018.37 1018.36 1018.19 1017.93 1017.66 1017.47 1017.44 1017.58 1017.87 1018.25 1018.67 1019.05 1019.37 1019.62 1019.81 1019.99 1020.18
1008.10 1008.85 1009.70 1010.53 1011.26 1011.85 1012.29 1012.64 1012.95 1013.30 1013.73 1014.22 1014.75 1015.24 1015.64 1015.90 1016.01 1016.02 1016.00 1016.02 1016.17 1016.45 1016.86 1017.33 1017.78 1018.12 1018.29 1018.27 1018.09 1017.82 1017.57 1017.40 1017.39 1017.56 1017.87 1018.27 1018.70 1019.10 1019.42 1019.67 1019.85 1020.02 1020.20
1008.23 1008.92 1009.69 1010.42 1011.06 1011.56 1011.95 1012.26 1012.58 1012.94 1013.40 1013.93 1014.50 1015.03 1015.46 1015.74 1015.88 1015.91 1015.90 1015.93 1016.06 1016.32 1016.70 1017.13 1017.55 1017.85 1018.00 1017.97 1017.80 1017.55 1017.33 1017.20 1017.23 1017.43 1017.77 1018.20 1018.65 1019.07 1019.41 1019.67 1019.86 1020.03 1020.21
1008.39 1008.98 1009.62 1010.21 1010.72 1011.13 1011.44 1011.73 1012.05 1012.44 1012.95 1013.54 1014.17 1014.76 1015.24 1015.57 1015.74 1015.80 1015.80 1015.82 1015.92 1016.14 1016.46 1016.83 1017.18 1017.45 1017.57 1017.54 1017.39 1017.18 1017.00 1016.91 1016.98 1017.21 1017.57 1018.02 1018.50 1018.94 1019.31 1019.60 1019.82 1020.01 1020.20
1008.70 1009.13 1009.59 1010.01 1010.36 1010.65 1010.89 1011.15 1011.48 1011.92 1012.49 1013.15 1013.84 1014.50 1015.04 1015.43 1015.65 1015.73 1015.73 1015.74 1015.81 1015.96 1016.21 1016.50 1016.79 1017.00 1017.10 1017.08 1016.96 1016.79 1016.66 1016.61 1016.70 1016.95 1017.32 1017.78 1018.26 1018.72 1019.12 1019.45 1019.71 1019.95 1020.17
1009.22 1009.46 1009.71 1009.94 1010.12 1010.28 1010.45 1010.68 1011.02 1011.50 1012.12 1012.85 1013.61 1014.32 1014.92 1015.35 1015.61 1015.72 1015.74 1015.73 1015.75 1015.85 1016.02 1016.24 1016.46 1016.64 1016.72 1016.71 1016.62 1016.50 1016.41 1016.39 1016.49 1016.73 1017.08 1017.51 1017.98 1018.44 1018.86 1019.23 1019.55 1019.84 1020.12
1010.02 1010.06 1010.09 1010.10 1010.12 1010.15 1010.25 1010.45 1010.80 1011.30 1011.96 1012.72 1013.50 1014.25 1014.88 1015.35 1015.64 1015.77 1015.80 1015.78 1015.78 1015.82 1015.94 1016.09 1016.27 1016.41 1016.50 1016.51 1016.47 1016.39 1016.33 1016.32 1016.41 1016.61 1016.91 1017.29 1017.71 1018.15 1018.57 1018.97 1019.34 1019.69 1020.03
1011.09 1010.93 1010.76 1010.59 1010.44 1010.37 1010.40 1010.56 1010.89 1011.39 1012.04 1012.78 1013.55 1014.28 1014.90 1015.36 1015.67 1015.82 1015.87 1015.86 1015.85 1015.87 1015.95 1016.08 1016.22 1016.36 1016.47 1016.52 1016.52 1016.49 1016.46 1016.46 1016.52 1016.66 1016.87 1017.16 1017.51 1017.89 1018.29 1018.70 1019.11 1019.52 1019.93
1012.31 1012.00 1011.67 1011.35 1011.09 1010.93 1010.89 1011.02 1011.31 1011.76 1012.34 1013.00 1013.69 1014.35 1014.91 1015.34 1015.64 1015.81 1015.88 1015.90 1015.91 1015.94 1016.02 1016.14 1016.29 1016.45 1016.59 1016.69 1016.75 1016.77 1016.77 1016.78 1016.80 1016.87 1016.99 1017.17 1017.41 1017.71 1018.06 1018.45 1018.88 1019.34 1019.82
1013.54 1013.14 1012.71 1012.30 1011.97 1011.76 1011.68 1011.75 1011.98 1012.33 1012.80 1013.32 1013.87 1014.39 1014.85 1015.22 1015.49 1015.66 1015.77 1015.83 1015.89 1015.96 1016.07 1016.21 1016.39 1016.58 1016.77 1016.94 1017.07 1017.15 1017.20 1017.21 1017.21 1017.21 1017.23 1017.30 1017.43 1017.63 1017.91 1018.27 1018.70 1019.18 1019.71
1014.61 1014.19 1013.73 1013.31 1012.96 1012.73 1012.62 1012.65 1012.79 1013.02 1013.32 1013.66 1014.01 1014.36 1014.68 1014.95 1015.18 1015.36 1015.51 1015.63 1015.75 1015.88 1016.04 1016.23 1016.44 1016.68 1016.93 1017.17 1017.37 1017.53 1017.63 1017.67 1017.67 1017.62 1017.56 1017.53 1017.56 1017.66 1017.86 1018.17 1018.58 1019.07 1019.62
1015.42 1015.03 1014.60 1014.21 1013.90 1013.69 1013.59 1013.57 1013.62 1013.71 1013.83 1013.96 1014.10 1014.24 1014.40 1014.57 1014.74 1014.93 1015.11 1015.30 1015.49 1015.69 1015.90 1016.14 1016.40 1016.69 1016.99 1017.30 1017.58 1017.82 1017.98 1018.07 1018.08 1018.02 1017.92 1017.83 1017.77 1017.79 1017.92 1018.17 1018.55 1019.03 1019.59
1015.88 1015.57 1015.23 1014.92 1014.69 1014.54 1014.46 1014.42 1014.39 1014.35 1014.28 1014.20 1014.12 1014.07 1014.07 1014.13 1014.25 1014.43 1014.66 1014.90 1015.16 1015.42 1015.68 1015.95 1016.24 1016.56 1016.91 1017.27 1017.62 1017.93 1018.18 1018.33 1018.39 1018.35 1018.25 1018.12 1018.02 1018.00 1018.08 1018.29 1018.63 1019.10 1019.65
1016.04 1015.83 1015.60 1015.40 1015.27 1015.20 1015.16 1015.12 1015.04 1014.89 1014.67 1014.41 1014.15 1013.92 1013.78 1013.74 1013.82 1013.99 1014.24 1014.53 1014.83 1015.12 1015.41 1015.69 1015.99 1016.32 1016.69 1017.08 1017.48 1017.86 1018.18 1018.41 1018.54 1018.56 1018.49 1018.39 1018.30 1018.26 1018.33 1018.52 1018.85 1019.30 1019.83
1016.00 1015.89 1015.77 1015.69 1015.67 1015.69 1015.71 1015.68 1015.57 1015.35 1015.03 1014.64 1014.24 1013.89 1013.64 1013.52 1013.55 1013.70 1013.96 1014.26 1014.57 1014.87 1015.15 1015.42 1015.70 1016.01 1016.36 1016.76 1017.19 1017.61 1018.00 1018.31 1018.52 1018.62 1018.63 1018.60 1018.56 1018.57 1018.66 1018.87 1019.20 1019.64 1020.16
1015.90 1015.89 1015.87 1015.89 1015.97 1016.07 1016.15 1016.15 1016.04 1015.80 1015.42 1014.96 1014.48 1014.04 1013.72 1013.54 1013.53 1013.65 1013.88 1014.17 1014.46 1014.73 1014.97 1015.19 1015.42 1015.67 1015.99 1016.37 1016.79 1017.24 1017.68 1018.06 1018.36 1018.56 1018.67 1018.74 1018.80 1018.89 1019.06 1019.32 1019.68 1020.13 1020.64
1015.91 1015.97 1016.03 1016.12 1016.27 1016.42 1016.55 1016.60 1016.51 1016.27 1015.89 1015.41 1014.89 1014.42 1014.06 1013.83 1013.77 1013.85 1014.04 1014.27 1014.51 1014.72 1014.89 1015.04 1015.19 1015.38 1015.63 1015.96 1016.37 1016.82 1017.28 1017.72 1018.09 1018.39 1018.63 1018.82 1019.00 1019.21 1019.49 1019.83 1020.26 1020.74 1021.25
1016.13 1016.24 1016.34 1016.47 1016.65 1016.84 1016.99 1017.06 1017.01 1016.80 1016.44 1015.98 1015.48 1015.01 1014.62 1014.36 1014.25 1014.27 1014.39 1014.55 1014.70 1014.83 1014.92 1014.98 1015.05 1015.16 1015.34 1015.62 1015.98 1016.41 1016.87 1017.34 1017.78 1018.18 1018.52 1018.85 1019.17 1019.52 1019.92 1020.38 1020.88 1021.41 1021.93
Thickness
5822 5817 5810 5807 5803 5800 5797 5794 5792 5789 5787 5785 5783 5782 5780 5778 5776 5775 5773 5771 5769 5767 5765 5764 5762 5760 5759 5758 5757 5756 5754 5754 5753 5753 5751 5749 5747 5746 5744 5743 5742 5740 5737
5823 5815 5808 5805 5801 5798 5795 5792 5789 5786 5784 5782 5780 5778 5776 5774 5772 5771 5769 5767 5766 5764 5762 5761 5759 5758 5756 5755 5754 5753 5752 5751 5751 5750 5749 5747 5745 5743 5742 5742 5741 5738 5736
5821 5812 5806 5802 5799 5796 5792 5789 5786 5783 5781 5779 5777 5775 5773 5771 5769 5767 5766 5764 5763 5761 5760 5758 5757 5755 5754 5753 5752 5751 5750 5749 5748 5748 5748 5746 5743 5741 5740 5739 5738 5735 5733
5817 5810 5805 5799 5796 5793 5790 5787 5783 5781 5778 5776 5774 5771 5769 5767 5765 5764 5762 5761 5760 5758 5757 5756 5755 5753 5752 5751 5750 5749 5748 5747 5747 5747 5747 5746 5743 5739 5737 5736 5734 5733 5731
5814 5808 5800 5797 5793 5790 5787 5784 5781 5778 5775 5773 5770 5768 5766 5764 5762 5761 5759 5758 5756 5755 5754 5753 5752 5751 5750 5749 5748 5747 5747 5746 5746 5746 5747 5745 5742 5738 5736 5734 5732 5731 5729
5811 5805 5797 5793 5790 5787 5784 5781 5778 5775 5772 5770 5767 5765 5763 5761 5759 5758 5756 5755 5753 5752 5751 5750 5749 5748 5747 5747 5746 5745 5745 5745 5745 5747 5747 5744 5740 5737 5735 5732 5730 5729 5727
5809 5802 5794 5790 5787 5784 5781 5778 5775 5772 5769 5767 5764 5762 5760 5758 5756 5755 5753 5752 5750 5749 5748 5747 5746 5746 5745 5744 5744 5744 5744 5744 5745 5748 5747 5744 5739 5736 5734 5731 5729 5727 5726
5807 5798 5789 5785 5782 5779 5777 5774 5771 5769 5766 5763 5761 5759 5757 5755 5753 5752 5750 5748 5747 5746 5745 5744 5743 5743 5743 5742 5742 5742 5742 5742 5746 5748 5746 5743 5739 5736 5732 5730 5728 5726 5724
5804 5794 5786 5781 5777 5774 5772 5770 5767 5765 5763 5760 5758 5756 5754 5752 5750 5748 5747 5745 5744 5743 5742 5741 5740 5740 5740 5740 5740 5740 5741 5741 5742 5746 5745 5742 5738 5735 5732 5729 5726 5725 5723
5799 5791 5786 5780 5776 5772 5768 5766 5763 5761 5759 5757 5755 5752 5750 5749 5747 5745 5744 5742 5741 5740 5739 5738 5737 5737 5738 5738 5737 5738 5738 5739 5741 5745 5744 5740 5737 5734 5731 5728 5725 5723 5722
5792 5787 5784 5779 5775 5772 5769 5764 5760 5758 5755 5753 5751 5749 5747 5746 5745 5743 5743 5740 5738 5737 5736 5735 5735 5735 5735 5735 5735 5736 5736 5737 5740 5742 5741 5737 5735 5732 5730 5727 5725 5722 5720
5781 5781 5781 5775 5772 5771 5769 5761 5758 5755 5751 5749 5749 5746 5745 5745 5744 5743 5741 5738 5736 5734 5733 5733 5732 5732 5732 5734 5734 5734 5735 5737 5739 5740 5737 5735 5734 5731 5729 5727 5724 5721 5719
5772 5773 5775 5773 5770 5768 5765 5757 5755 5752 5749 5746 5746 5744 5743 5743 5742 5741 5739 5735 5733 5731 5731 5731 5730 5730 5732 5733 5735 5734 5735 5737 5739 5739 5736 5734 5732 5729 5727 5726 5723 5720 5718
5766 5764 5767 5768 5764 5763 5759 5753 5751 5749 5746 5744 5743 5741 5741 5739 5739 5738 5736 5734 5732 5730 5730 5729 5729 5729 5730 5732 5733 5733 5734 5735 5736 5737 5735 5733 5731 5728 5726 5724 5722 5719 5717
5756 5755 5760 5760 5758 5757 5753 5749 5746 5745 5743 5739 5737 5735 5735 5734 5734 5733 5732 5731 5730 5730 5729 5727 5726 5727 5728 5730 5731 5732 5732 5732 5732 5731 5731 5729 5727 5726 5723 5722 5720 5718 5715
5748 5749 5753 5753 5752 5751 5748 5744 5743 5741 5739 5738 5734 5732 5730 5729 5729 5727 5727 5726 5726 5726 5726 5725 5724 5724 5725 5726 5728 5729 5729 5729 5728 5727 5725 5722 5722 5721 5720 5719 5717 5715 5713
5740 5741 5743 5745 5745 5743 5741 5739 5738 5736 5733 5732 5728 5726 5724 5724 5723 5721 5721 5721 5722 5722 5721 5720 5719 5720 5721 5722 5722 5723 5724 5725 5725 5724 5722 5719 5718 5715 5714 5714 5714 5712 5711
5734 5733 5734 5736 5736 5735 5732 5731 5730 5728 5726 5725 5721 5720 5719 5718 5718 5717 5716 5717 5718 5718 5717 5716 5716 5715 5714 5715 5716 5717 5718 5718 5719 5719 5718 5716 5714 5711 5710 5709 5709 5709 5708
5727 5727 5726 5727 5727 5726 5725 5723 5722 5721 5719 5717 5716 5714 5713 5712 5711 5711 5710 5711 5712 5712 5712 5713 5711 5710 5709 5710 5711 5711 5711 5711 5712 5712 5712 5711 5709 5707 5706 5705 5705 5705 5704
5722 5720 5720 5719 5718 5718 5717 5715 5714 5713 5712 5710 5709 5707 5706 5706 5705 5705 5705 5706 5706 5705 5705 5705 5704 5705 5705 5705 5705 5705 5705 5705 5706 5706 5706 5706 5705 5703 5702 5701 5701 5700 5698
5714 5713 5711 5709 5708 5708 5707 5705 5703 5702 5702 5702 5701 5700 5699 5699 5698 5698 5698 5699 5699 5699 5698 5698 5697 5697 5698 5699 5697 5695 5697 5698 5698 5699 5700 5701 5701 5699 5698 5697 5695 5694 5691
5706 5705 5703 5701 5699 5699 5697 5697 5695 5694 5694 5694 5693 5692 5692 5691 5690 5691 5690 5691 5692 5692 5692 5692 5691 5690 5692 5693 5691 5687 5685 5685 5689 5691 5693 5694 5694 5693 5691 5690 5689 5687 5685
5698 5696 5695 5692 5690 5689 5689 5689 5688 5686 5686 5685 5683 5683 5682 5682 5682 5682 5683 5683 5684 5685 5685 5686 5686 5684 5683 5686 5687 5683 5679 5678 5678 5680 5683 5685 5685 5684 5683 5681 5680 5679 5677
5690 5689 5686 5683 5681 5680 5680 5679 5677 5675 5673 5673 5673 5673 5673 5673 5673 5673 5674 5675 5675 5677 5678 5679 5680 5680 5679 5679 5681 5681 5680 5679 5674 5670 5671 5673 5674 5674 5674 5673 5671 5671 5669
5683 5680 5678 5675 5672 5671 5670 5669 5667 5666 5665 5664 5664 5663 5663 5663 5663 5664 5665 5666 5667 5668 5670 5672 5673 5674 5674 5674 5674 5674 5673 5673 5673 5668 5663 5662 5661 5661 5662 5663 5662 5660 5659
5675 5672 5669 5665 5662 5661 5659 5658 5657 5655 5654 5654 5653 5653 5653 5653 5653 5654 5655 5656 5658 5659 5661 5663 5664 5666 5667 5668 5668 5668 5667 5666 5665 5663 5659 5655 5651 5649 5649 5650 5650 5650 5648